Regional Weather Roundup
Issued by NWS

Home | Current Version | Previous Version | Text Only | Print | Product List | Glossary Off
Versions: 1 2 3 4 5 6 7 8 9 10 11 12 13 14 15 16 17 18 19 20 21 22 23 24 25 26 27 28 29 30 31 32 33 34 35 36 37 38 39 40 41 42 43 44 45 46 47 48 49 50

271
ASUS44 KJAN 270710
RWRMS

MISSISSIPPI HOURLY WEATHER ROUNDUP
NATIONAL WEATHER SERVICE JACKSON MS
200 AM CDT WED AUG 27 2014

NOTE: "FAIR: INDICATES FEW OR NO CLOUDS BELOW 12,000 FEET WITH NO
SIGNIFICANT WEATHER AND/OR OBSTRUCTIONS TO VISIBILITY.

MSZ001>002-007>008-010>013-018>021-025>028-034>036-270800-
NORTHWEST MISSISSIPPI

CITY           SKY/WX    TMP DP  RH WIND       PRES   REMARKS
CLARKSDALE     FAIR      73  73 100 CALM      30.05F
CLEVELAND      FAIR      74  69  84 E5        30.03S
GREENWOOD      CLEAR     74  66  76 E8        30.03F
GREENVILLE     CLEAR     72  67  84 CALM      30.03S
GRENADA        FAIR      73  66  78 E7        30.05F
OLIVE BRANCH   CLEAR     73  73 100 CALM      30.07S
OXFORD         FAIR      72  64  78 CALM      30.07F
TUNICA         SUNNY     72  70  94 CALM      30.06S
$$

MSZ003>006-009-014>017-022>024-029>033-037>039-270800-
NORTHEAST MISSISSIPPI

CITY           SKY/WX    TMP DP  RH WIND       PRES   REMARKS
BELMONT        FAIR      68  67  96 CALM      30.07S
COLUMBUS AFB   CLEAR     71  66  83 CALM      30.05S
CORINTH        FOG       70  68  94 CALM      30.06S VSB 1/2
GOLDN TRIANGLE CLEAR     72  63  73 CALM      30.05S
STARKVILLE     FAIR      68  64  88 CALM      30.05S
TUPELO         CLEAR     70  66  87 NE5       30.06S
$$

MSZ040-058-270800-
CENTRAL MISSISSIPPI

CITY           SKY/WX    TMP DP  RH WIND       PRES   REMARKS
JACKSON INTL   CLEAR     71  66  84 CALM      30.02S
JACKSON HAWKNS CLEAR     72  66  81 CALM      30.03S
MERIDIAN KEY   CLEAR     67  64  90 CALM      30.02F
MERIDIAN NAS   CLEAR     67  64  90 CALM      30.03S
RAYMOND        FAIR      66  63  88 CALM      30.03S
VICKSBURG      CLEAR     68  67  96 CALM      30.02R
$$

MSZ059>079-270800-
SOUTH MISSISSIPPI

CITY           SKY/WX    TMP DP  RH WIND       PRES   REMARKS
BROOKHAVEN     FAIR      68  66  94 CALM      30.04S
COLUMBIA       FAIR      68  68 100 MISG      30.00S
HATTIESBURG    PTCLDY    72  68  87 CALM      30.01S
MCCOMB         CLEAR     72  66  81 CALM      30.01S
NATCHEZ        CLEAR     70  66  88 CALM      30.02S
PINE BELT      CLEAR    N/A N/A N/A N3        30.02F
$$

MSZ080>082-270800-
COASTAL MISSISSIPPI

CITY           SKY/WX    TMP DP  RH WIND       PRES   REMARKS
BILOXI         PTCLDY    77  73  88 NE8       29.98S
PASCAGOULA     PTCLDY    73  71  93 CALM      29.98S
GULFPORT       CLEAR     77  73  87 NE3       29.97F
$$



USA.gov is the U.S. government's official web portal to all federal, state and local government web resources and services.